FW5763 Weather Reports


Display with metric or nautical units.
time (UTC)temp
F
wind
direction
speed
MPH
gust
MPH
rain 1hr
in
rain 24hr
in
rain mn
in
humidity
%
barometer
mb
20260509192616 60 181 4.0 7.0 0.00 0.00 0.00 80 1016.5
20260509191636 60 160 3.0 7.0 0.00 0.00 0.00 80 1016.5
20260509190616 60 182 3.0 7.0 0.00 0.00 0.00 81 1016.5
20260509185616 59 208 4.0 6.0 0.00 0.00 0.00 82 1016.7
20260509184616 60 196 6.0 9.0 0.00 0.00 0.00 80 1016.8
20260509183616 59 170 3.0 6.0 0.00 0.00 0.00 82 1016.9
20260509182616 58 162 3.0 6.0 0.00 0.00 0.00 84 1016.9
20260509181616 58 208 4.0 7.0 0.00 0.00 0.00 83 1017.0
20260509180616 58 193 2.0 5.0 0.00 0.00 0.00 85 1016.9
20260509175616 57 176 3.0 6.0 0.00 0.00 0.00 86 1017.0
20260509174616 56 133 2.0 6.0 0.00 0.00 0.00 88 1016.9
20260509173616 56 216 3.0 5.0 0.00 0.00 0.00 88 1016.9
20260509172616 55 220 2.0 4.0 0.00 0.00 0.00 91 1016.8
20260509171616 54 97 1.0 2.0 0.00 0.00 0.00 92 1016.9
20260509170616 54 291 1.0 3.0 0.00 0.00 0.00 92 1016.9
20260509165616 54 188 1.0 3.0 0.00 0.00 0.00 92 1016.8
20260509164615 53 116 1.0 2.0 0.00 0.00 0.00 92 1016.9
20260509163616 53 84 2.0 4.0 0.00 0.00 0.00 92 1017.1
20260509162616 53 94 0.0 1.0 0.00 0.00 0.00 93 1017.1
20260509161615 52 180 1.0 2.0 0.00 0.00 0.00 93 1017.2
20260509160616 52 154 1.0 4.0 0.00 0.00 0.00 93 1017.1
20260509155615 52 259 1.0 2.0 0.00 0.00 0.00 93 1017.1
20260509154615 52 288 1.0 2.0 0.00 0.00 0.00 93 1017.3
20260509153616 52 306 0.0 1.0 0.00 0.00 0.00 93 1017.2
20260509152615 51 218 2.0 2.0 0.00 0.00 0.00 93 1017.0
20260509151615 51 246 0.0 2.0 0.00 0.00 0.00 93 1017.0
20260509150636 51 283 1.0 3.0 0.00 0.00 0.00 93 1017.1
20260509145616 51 284 2.0 3.0 0.00 0.00 0.00 93 1017.0
20260509144615 50 282 3.0 4.0 0.00 0.00 0.00 93 1017.0
20260509143635 50 279 2.0 3.0 0.00 0.00 0.00 93 1016.9
20260509142615 50 281 1.0 3.0 0.00 0.00 0.00 93 1016.8
20260509141616 50 268 1.0 3.0 0.00 0.00 0.00 93 1016.8
20260509140616 50 237 1.0 1.0 0.00 0.00 0.00 92 1016.6
20260509135615 50 291 1.0 2.0 0.00 0.00 0.00 93 1016.6
20260509134615 50 269 1.0 2.0 0.00 0.00 0.00 92 1016.6
20260509133616 50 284 1.0 2.0 0.00 0.00 0.00 92 1016.5
20260509132615 50 278 1.0 3.0 0.00 0.00 0.00 92 1016.6
20260509131615 50 267 2.0 2.0 0.00 0.00 0.00 92 1016.4
20260509130615 50 290 2.0 3.0 0.00 0.00 0.00 92 1016.4
20260509125635 51 264 2.0 3.0 0.00 0.00 0.00 92 1016.3
20260509124635 51 246 1.0 3.0 0.00 0.00 0.00 92 1016.3
20260509123616 51 290 2.0 3.0 0.00 0.00 0.00 92 1016.3
20260509122616 51 288 2.0 2.0 0.00 0.00 0.00 92 1016.3
20260509121615 51 279 1.0 2.0 0.00 0.00 0.00 92 1016.3
20260509120636 51 277 1.0 2.0 0.00 0.00 0.00 92 1016.3
20260509115615 51 279 1.0 3.0 0.00 0.00 0.00 92 1016.3
20260509114615 52 302 2.0 3.0 0.00 0.00 0.00 92 1016.4
20260509113635 52 308 1.0 3.0 0.00 0.00 0.00 92 1016.4
20260509112635 52 287 2.0 2.0 0.00 0.00 0.00 92 1016.4
20260509111616 51 312 1.0 2.0 0.00 0.00 0.00 92 1016.5
20260509110636 51 260 1.0 3.0 0.00 0.00 0.00 92 1016.5
20260509105615 52 274 2.0 3.0 0.00 0.00 0.00 92 1016.6
20260509104615 52 276 2.0 3.0 0.00 0.00 0.00 92 1016.5
20260509103615 52 272 1.0 3.0 0.00 0.00 0.00 91 1016.6
20260509102615 52 300 1.0 3.0 0.00 0.00 0.00 91 1016.6
20260509101615 53 285 0.0 2.0 0.00 0.00 0.00 91 1016.5
20260509100616 53 265 1.0 2.0 0.00 0.00 0.00 91 1016.5
20260509095615 53 321 1.0 2.0 0.00 0.00 0.00 91 1016.8
20260509094615 53 317 0.0 1.0 0.00 0.00 0.00 91 1016.7
20260509093616 53 313 1.0 2.0 0.00 0.00 0.00 91 1016.8
20260509092615 53 300 0.0 1.0 0.00 0.00 0.00 91 1016.9
20260509091618 53 318 1.0 2.0 0.00 0.00 0.00 91 1016.9
20260509090618 53 309 1.0 2.0 0.00 0.00 0.00 91 1017.0
20260509085618 52 308 2.0 3.0 0.00 0.00 0.00 91 1017.0
20260509084637 52 277 2.0 2.0 0.00 0.00 0.00 92 1017.2
20260509083618 52 277 1.0 1.0 0.00 0.00 0.00 92 1017.1
20260509082617 51 277 0.0 1.0 0.00 0.00 0.00 92 1017.2
20260509081616 51 277 0.0 1.0 0.00 0.00 0.00 91 1017.2
20260509080617 51 277 1.0 2.0 0.00 0.00 0.00 91 1017.1
20260509075618 51 277 0.0 1.0 0.00 0.00 0.00 91 1017.2
20260509074617 51 0.0 0.0 0.00 0.00 0.00 91 1017.2
20260509073617 51 0.0 0.0 0.00 0.00 0.00 91 1017.1
20260509072617 50 0.0 0.0 0.00 0.00 0.00 91 1017.3
20260509071616 51 0.0 0.0 0.00 0.00 0.00 90 1017.4
20260509070638 51 0.0 0.0 0.00 0.00 0.00 90 1017.4
20260509065657 51 0.0 0.0 0.00 0.00 0.00 90 1017.5
20260509064618 52 0.0 0.0 0.00 0.00 0.00 90 1017.5
20260509063616 52 277 0.0 1.0 0.00 0.00 0.00 90 1017.5
20260509062617 52 277 0.0 1.0 0.00 0.00 0.00 90 1017.5
20260509061617 52 277 0.0 1.0 0.00 0.00 0.00 89 1017.6
20260509060615 53 0.0 0.0 0.00 0.00 0.00 89 1017.6
20260509055615 53 0.0 0.0 0.00 0.00 0.00 89 1017.6
20260509054615 53 0.0 0.0 0.00 0.00 0.00 89 1017.8
20260509053615 54 225 0.0 1.0 0.00 0.00 0.00 88 1017.7
20260509052615 54 0.0 1.0 0.00 0.00 0.00 88 1017.8
20260509051615 54 225 0.0 1.0 0.00 0.00 0.00 88 1017.6
20260509050635 55 225 1.0 1.0 0.00 0.00 0.00 88 1017.7
20260509045615 55 0.0 0.0 0.00 0.00 0.00 88 1017.5
20260509044615 55 0.0 0.0 0.00 0.00 0.00 87 1017.5
20260509043615 55 0.0 0.0 0.00 0.00 0.00 87 1017.5
20260509042635 56 155 0.0 1.0 0.00 0.00 0.00 86 1017.4
20260509041615 56 155 0.0 1.0 0.00 0.00 0.00 86 1017.2
20260509040615 57 134 1.0 2.0 0.00 0.00 0.00 85 1017.1
20260509035615 57 125 0.0 1.0 0.00 0.00 0.00 84 1017.0
20260509034615 58 136 1.0 4.0 0.00 0.00 0.00 84 1016.9
20260509033615 58 118 1.0 4.0 0.00 0.00 0.00 83 1016.9
20260509032635 59 138 1.0 3.0 0.00 0.00 0.00 81 1016.8
20260509031635 60 173 1.0 1.0 0.00 0.00 0.00 80 1016.7
20260509030615 60 181 0.0 1.0 0.00 0.00 0.00 79 1016.6
20260509025615 61 142 1.0 3.0 0.00 0.00 0.00 77 1016.6
20260509024615 61 64 0.0 1.0 0.00 0.00 0.00 76 1016.5
20260509023615 62 159 1.0 2.0 0.00 0.00 0.00 75 1016.5
20260509022615 62 117 1.0 2.0 0.00 0.00 0.00 75 1016.4
20260509021615 62 101 4.0 6.0 0.00 0.00 0.00 73 1016.4
20260509020715 63 90 2.0 5.0 0.00 0.00 0.00 72 1016.3
20260509015615 63 84 3.0 5.0 0.00 0.00 0.00 71 1016.4
20260509014615 64 168 4.0 6.0 0.00 0.00 0.00 70 1016.4
20260509013614 64 96 3.0 4.0 0.00 0.00 0.00 70 1016.3
20260509012615 64 115 3.0 7.0 0.00 0.00 0.00 69 1016.3
20260509011614 64 158 5.0 7.0 0.00 0.00 0.00 68 1016.3
20260509010614 65 172 3.0 6.0 0.00 0.00 0.00 67 1016.4
20260509005615 65 145 4.0 7.0 0.00 0.00 0.00 67 1016.3
20260509004614 65 165 3.0 9.0 0.00 0.00 0.00 66 1016.4
20260509003615 66 98 3.0 6.0 0.00 0.00 0.00 65 1016.5
20260509002615 66 107 3.0 4.0 0.00 0.00 0.00 64 1016.5
20260509001614 68 166 3.0 6.0 0.00 0.00 0.00 64 1016.6
20260509000615 67 90 3.0 7.0 0.00 0.00 0.00 64 1016.7
20260508235614 67 106 6.0 10.0 0.00 0.00 0.00 63 1016.8
20260508234616 67 130 4.0 8.0 0.00 0.00 0.00 62 1016.8
20260508233637 68 153 4.0 11.0 0.00 0.00 0.00 64 1016.7
20260508232617 67 160 2.0 11.0 0.00 0.00 0.00 64 1016.8
20260508231657 67 174 2.0 4.0 0.00 0.00 0.00 66 1016.9
20260508230615 68 117 3.0 7.0 0.00 0.00 0.00 65 1016.9
20260508225617 67 148 4.0 9.0 0.00 0.00 0.00 65 1017.1
20260508224617 68 93 4.0 7.0 0.00 0.00 0.00 64 1017.2
20260508223636 68 146 5.0 8.0 0.00 0.00 0.00 65 1017.2
20260508222617 67 130 2.0 7.0 0.00 0.00 0.00 65 1017.3
20260508221617 68 105 6.0 9.0 0.00 0.00 0.00 65 1017.5
20260508220617 67 163 3.0 6.0 0.00 0.00 0.00 66 1017.5
20260508215616 66 193 2.0 6.0 0.00 0.00 0.00 66 1017.7
20260508214617 67 121 3.0 7.0 0.00 0.00 0.00 66 1017.9
20260508213657 66 152 3.0 5.0 0.00 0.00 0.00 67 1018.0
20260508212617 66 139 3.0 11.0 0.00 0.00 0.00 66 1018.3
20260508211616 66 109 3.0 4.0 0.00 0.00 0.00 67 1018.2
20260508210617 65 161 5.0 8.0 0.00 0.00 0.00 68 1018.4
20260508205617 65 109 5.0 9.0 0.00 0.00 0.00 68 1018.4
20260508204656 64 91 2.0 4.0 0.00 0.00 0.00 69 1018.4
20260508203637 64 156 3.0 7.0 0.00 0.00 0.00 68 1018.5
20260508202617 64 90 4.0 7.0 0.00 0.00 0.00 69 1018.4
20260508201617 63 194 3.0 4.0 0.00 0.00 0.00 70 1018.6
20260508200617 64 156 5.0 8.0 0.00 0.00 0.00 69 1018.7
20260508195617 63 183 2.0 6.0 0.00 0.00 0.00 69 1018.8
20260508194616 63 138 6.0 8.0 0.00 0.00 0.00 71 1018.9
20260508193617 63 179 2.0 6.0 0.00 0.00 0.00 71 1018.9